owner,sensor,date,latitude,longitude,vertical_datum,sea_water_temperature,qcFlag 
ENP,ioos.station.NOAA.NDBC:LBRF1:1,2014-11-01T00:00:00Z,25.4840,-81.1330,1.0,27.53,2 
ENP,ioos.station.NOAA.NDBC:LBRF1:1,2014-11-01T01:00:00Z,25.4840,-81.1330,1.0,27.65,2 
ENP,ioos.station.NOAA.NDBC:LBRF1:1,2014-11-01T02:00:00Z,25.4840,-81.1330,1.0,27.63,2 
ENP,ioos.station.NOAA.NDBC:LBRF1:1,2014-11-01T04:00:00Z,25.4840,-81.1330,1.0,27.71,2 
ENP,ioos.station.NOAA.NDBC:LBRF1:1,2014-11-01T05:00:00Z,25.4840,-81.1330,1.0,27.57,2 
ENP,ioos.station.NOAA.NDBC:LBRF1:1,2014-11-01T07:00:00Z,25.4840,-81.1330,1.0,26.96,2 
ENP,ioos.station.NOAA.NDBC:LBRF1:1,2014-11-01T08:00:00Z,25.4840,-81.1330,1.0,26.68,2 
ENP,ioos.station.NOAA.NDBC:LBRF1:1,2014-11-01T09:00:00Z,25.4840,-81.1330,1.0,26.4,11111222 
ENP,ioos.station.NOAA.NDBC:LBRF1:1,2014-11-01T10:00:00Z,25.4840,-81.1330,1.0,25.99,2 
ENP,ioos.station.NOAA.NDBC:LBRF1:1,2014-11-01T11:00:00Z,25.4840,-81.1330,1.0,26.56,2 
ENP,ioos.station.NOAA.NDBC:LBRF1:1,2014-11-01T12:00:00Z,25.4840,-81.1330,1.0,26.67,2 
ENP,ioos.station.NOAA.NDBC:LBRF1:1,2014-11-01T13:00:00Z,25.4840,-81.1330,1.0,26.55,2 
ENP,ioos.station.NOAA.NDBC:LBRF1:1,2014-11-01T14:00:00Z,25.4840,-81.1330,1.0,25.94,2 
ENP,ioos.station.NOAA.NDBC:LBRF1:1,2014-11-01T15:00:00Z,25.4840,-81.1330,1.0,25.61,2 
ENP,ioos.station.NOAA.NDBC:LBRF1:1,2014-11-01T16:00:00Z,25.4840,-81.1330,1.0,25.45,2 
ENP,ioos.station.NOAA.NDBC:LBRF1:1,2014-11-01T17:00:00Z,25.4840,-81.1330,1.0,25.6,11111222 
ENP,ioos.station.NOAA.NDBC:LBRF1:1,2014-11-01T18:00:00Z,25.4840,-81.1330,1.0,26.02,2 
ENP,ioos.station.NOAA.NDBC:LBRF1:1,2014-11-01T19:00:00Z,25.4840,-81.1330,1.0,26.42,2 
ENP,ioos.station.NOAA.NDBC:LBRF1:1,2014-11-01T20:00:00Z,25.4840,-81.1330,1.0,26.67,2 
ENP,ioos.station.NOAA.NDBC:LBRF1:1,2014-11-01T22:00:00Z,25.4840,-81.1330,1.0,26.25,2 
ENP,ioos.station.NOAA.NDBC:LBRF1:1,2014-11-01T23:00:00Z,25.4840,-81.1330,1.0,26.02,2 
ENP,ioos.station.NOAA.NDBC:LBRF1:1,2014-11-02T00:00:00Z,25.4840,-81.1330,1.0,26.03,2 
ENP,ioos.station.NOAA.NDBC:LBRF1:1,2014-11-02T02:00:00Z,25.4840,-81.1330,1.0,26.32,2 
ENP,ioos.station.NOAA.NDBC:LBRF1:1,2014-11-02T03:00:00Z,25.4840,-81.1330,1.0,26.21,2 
ENP,ioos.station.NOAA.NDBC:LBRF1:1,2014-11-02T05:00:00Z,25.4840,-81.1330,1.0,26.16,2 
ENP,ioos.station.NOAA.NDBC:LBRF1:1,2014-11-02T06:00:00Z,25.4840,-81.1330,1.0,25.33,2 
ENP,ioos.station.NOAA.NDBC:LBRF1:1,2014-11-02T07:00:00Z,25.4840,-81.1330,1.0,25.12,2 
ENP,ioos.station.NOAA.NDBC:LBRF1:1,2014-11-02T09:00:00Z,25.4840,-81.1330,1.0,24.22,2 
ENP,ioos.station.NOAA.NDBC:LBRF1:1,2014-11-02T10:00:00Z,25.4840,-81.1330,1.0,23.63,2 
ENP,ioos.station.NOAA.NDBC:LBRF1:1,2014-11-02T11:00:00Z,25.4840,-81.1330,1.0,23.15,2 
ENP,ioos.station.NOAA.NDBC:LBRF1:1,2014-11-02T12:00:00Z,25.4840,-81.1330,1.0,22.8,11111222 
ENP,ioos.station.NOAA.NDBC:LBRF1:1,2014-11-02T13:00:00Z,25.4840,-81.1330,1.0,22.56,2 
ENP,ioos.station.NOAA.NDBC:LBRF1:1,2014-11-02T14:00:00Z,25.4840,-81.1330,1.0,22.56,2 
ENP,ioos.station.NOAA.NDBC:LBRF1:1,2014-11-02T15:00:00Z,25.4840,-81.1330,1.0,22.92,2 
ENP,ioos.station.NOAA.NDBC:LBRF1:1,2014-11-02T16:00:00Z,25.4840,-81.1330,1.0,23.52,2 
ENP,ioos.station.NOAA.NDBC:LBRF1:1,2014-11-02T17:00:00Z,25.4840,-81.1330,1.0,23.76,2 
ENP,ioos.station.NOAA.NDBC:LBRF1:1,2014-11-02T18:00:00Z,25.4840,-81.1330,1.0,23.55,2 
ENP,ioos.station.NOAA.NDBC:LBRF1:1,2014-11-02T19:00:00Z,25.4840,-81.1330,1.0,23.11,2 
ENP,ioos.station.NOAA.NDBC:LBRF1:1,2014-11-02T21:00:00Z,25.4840,-81.1330,1.0,22.6,2 
ENP,ioos.station.NOAA.NDBC:LBRF1:1,2014-11-02T22:00:00Z,25.4840,-81.1330,1.0,22.46,2 
ENP,ioos.station.NOAA.NDBC:LBRF1:1,2014-11-03T00:00:00Z,25.4840,-81.1330,1.0,22.34,2 
ENP,ioos.station.NOAA.NDBC:LBRF1:1,2014-11-03T01:00:00Z,25.4840,-81.1330,1.0,22.27,2 
ENP,ioos.station.NOAA.NDBC:LBRF1:1,2014-11-03T02:00:00Z,25.4840,-81.1330,1.0,22.34,2 
ENP,ioos.station.NOAA.NDBC:LBRF1:1,2014-11-03T03:00:00Z,25.4840,-81.1330,1.0,22.27,2 
ENP,ioos.station.NOAA.NDBC:LBRF1:1,2014-11-03T05:00:00Z,25.4840,-81.1330,1.0,21.93,2 
ENP,ioos.station.NOAA.NDBC:LBRF1:1,2014-11-03T06:00:00Z,25.4840,-81.1330,1.0,21.97,2 
ENP,ioos.station.NOAA.NDBC:LBRF1:1,2014-11-03T07:00:00Z,25.4840,-81.1330,1.0,21.9,11111222 
ENP,ioos.station.NOAA.NDBC:LBRF1:1,2014-11-03T08:00:00Z,25.4840,-81.1330,1.0,21.77,2 
ENP,ioos.station.NOAA.NDBC:LBRF1:1,2014-11-03T09:00:00Z,25.4840,-81.1330,1.0,21.7,11111222 
ENP,ioos.station.NOAA.NDBC:LBRF1:1,2014-11-03T10:00:00Z,25.4840,-81.1330,1.0,21.51,2 
ENP,ioos.station.NOAA.NDBC:LBRF1:1,2014-11-03T11:00:00Z,25.4840,-81.1330,1.0,21.25,2 
ENP,ioos.station.NOAA.NDBC:LBRF1:1,2014-11-03T12:00:00Z,25.4840,-81.1330,1.0,21.1,11111222 
ENP,ioos.station.NOAA.NDBC:LBRF1:1,2014-11-03T13:00:00Z,25.4840,-81.1330,1.0,20.92,2 
ENP,ioos.station.NOAA.NDBC:LBRF1:1,2014-11-03T14:00:00Z,25.4840,-81.1330,1.0,20.92,2 
ENP,ioos.station.NOAA.NDBC:LBRF1:1,2014-11-03T15:00:00Z,25.4840,-81.1330,1.0,21.21,2 
ENP,ioos.station.NOAA.NDBC:LBRF1:1,2014-11-03T16:00:00Z,25.4840,-81.1330,1.0,21.45,2 
ENP,ioos.station.NOAA.NDBC:LBRF1:1,2014-11-03T17:00:00Z,25.4840,-81.1330,1.0,21.1,2 
ENP,ioos.station.NOAA.NDBC:LBRF1:1,2014-11-03T18:00:00Z,25.4840,-81.1330,1.0,20.67,2 
ENP,ioos.station.NOAA.NDBC:LBRF1:1,2014-11-03T19:00:00Z,25.4840,-81.1330,1.0,21.73,2 
ENP,ioos.station.NOAA.NDBC:LBRF1:1,2014-11-03T21:00:00Z,25.4840,-81.1330,1.0,21.76,2 
ENP,ioos.station.NOAA.NDBC:LBRF1:1,2014-11-03T22:00:00Z,25.4840,-81.1330,1.0,21.64,2 
ENP,ioos.station.NOAA.NDBC:LBRF1:1,2014-11-03T23:00:00Z,25.4840,-81.1330,1.0,21.52,2 
ENP,ioos.station.NOAA.NDBC:LBRF1:1,2014-11-04T01:00:00Z,25.4840,-81.1330,1.0,21.43,2 
ENP,ioos.station.NOAA.NDBC:LBRF1:1,2014-11-04T02:00:00Z,25.4840,-81.1330,1.0,21.37,2 
ENP,ioos.station.NOAA.NDBC:LBRF1:1,2014-11-04T03:00:00Z,25.4840,-81.1330,1.0,21.22,2 
ENP,ioos.station.NOAA.NDBC:LBRF1:1,2014-11-04T04:00:00Z,25.4840,-81.1330,1.0,20.8,11111222 
ENP,ioos.station.NOAA.NDBC:LBRF1:1,2014-11-04T05:00:00Z,25.4840,-81.1330,1.0,20.49,2 
ENP,ioos.station.NOAA.NDBC:LBRF1:1,2014-11-04T06:00:00Z,25.4840,-81.1330,1.0,20.4,2 
ENP,ioos.station.NOAA.NDBC:LBRF1:1,2014-11-04T07:00:00Z,25.4840,-81.1330,1.0,20.4,11111222 
ENP,ioos.station.NOAA.NDBC:LBRF1:1,2014-11-04T08:00:00Z,25.4840,-81.1330,1.0,20.6,2 
ENP,ioos.station.NOAA.NDBC:LBRF1:1,2014-11-04T09:00:00Z,25.4840,-81.1330,1.0,20.86,2 
ENP,ioos.station.NOAA.NDBC:LBRF1:1,2014-11-04T10:00:00Z,25.4840,-81.1330,1.0,21.03,2 
ENP,ioos.station.NOAA.NDBC:LBRF1:1,2014-11-04T11:00:00Z,25.4840,-81.1330,1.0,20.99,2 
ENP,ioos.station.NOAA.NDBC:LBRF1:1,2014-11-04T12:00:00Z,25.4840,-81.1330,1.0,20.9,11111222 
ENP,ioos.station.NOAA.NDBC:LBRF1:1,2014-11-04T13:00:00Z,25.4840,-81.1330,1.0,20.82,2 
ENP,ioos.station.NOAA.NDBC:LBRF1:1,2014-11-04T14:00:00Z,25.4840,-81.1330,1.0,20.81,2 
ENP,ioos.station.NOAA.NDBC:LBRF1:1,2014-11-04T16:00:00Z,25.4840,-81.1330,1.0,20.86,2 
ENP,ioos.station.NOAA.NDBC:LBRF1:1,2014-11-04T17:00:00Z,25.4840,-81.1330,1.0,20.2,11111222 
ENP,ioos.station.NOAA.NDBC:LBRF1:1,2014-11-04T18:00:00Z,25.4840,-81.1330,1.0,19.9,2 
ENP,ioos.station.NOAA.NDBC:LBRF1:1,2014-11-04T19:00:00Z,25.4840,-81.1330,1.0,19.83,2 
ENP,ioos.station.NOAA.NDBC:LBRF1:1,2014-11-04T20:00:00Z,25.4840,-81.1330,1.0,20.4,11111222 
ENP,ioos.station.NOAA.NDBC:LBRF1:1,2014-11-04T21:00:00Z,25.4840,-81.1330,1.0,20.65,2 
ENP,ioos.station.NOAA.NDBC:LBRF1:1,2014-11-04T22:00:00Z,25.4840,-81.1330,1.0,21.08,2 
ENP,ioos.station.NOAA.NDBC:LBRF1:1,2014-11-04T23:00:00Z,25.4840,-81.1330,1.0,21.3,2 
ENP,ioos.station.NOAA.NDBC:LBRF1:1,2014-11-05T00:00:00Z,25.4840,-81.1330,1.0,21.2,11111222 
ENP,ioos.station.NOAA.NDBC:LBRF1:1,2014-11-05T01:00:00Z,25.4840,-81.1330,1.0,21.18,2 
ENP,ioos.station.NOAA.NDBC:LBRF1:1,2014-11-05T02:00:00Z,25.4840,-81.1330,1.0,21.16,2 
ENP,ioos.station.NOAA.NDBC:LBRF1:1,2014-11-05T03:00:00Z,25.4840,-81.1330,1.0,20.95,2 
ENP,ioos.station.NOAA.NDBC:LBRF1:1,2014-11-05T04:00:00Z,25.4840,-81.1330,1.0,20.2,11111222 
ENP,ioos.station.NOAA.NDBC:LBRF1:1,2014-11-05T05:00:00Z,25.4840,-81.1330,1.0,20.17,2 
ENP,ioos.station.NOAA.NDBC:LBRF1:1,2014-11-05T06:00:00Z,25.4840,-81.1330,1.0,20.16,2 
ENP,ioos.station.NOAA.NDBC:LBRF1:1,2014-11-05T07:00:00Z,25.4840,-81.1330,1.0,20.15,2 
ENP,ioos.station.NOAA.NDBC:LBRF1:1,2014-11-05T08:00:00Z,25.4840,-81.1330,1.0,20.2,11111222 
ENP,ioos.station.NOAA.NDBC:LBRF1:1,2014-11-05T09:00:00Z,25.4840,-81.1330,1.0,20.12,2 
ENP,ioos.station.NOAA.NDBC:LBRF1:1,2014-11-05T10:00:00Z,25.4840,-81.1330,1.0,20.1,2 
ENP,ioos.station.NOAA.NDBC:LBRF1:1,2014-11-05T11:00:00Z,25.4840,-81.1330,1.0,20.18,2 
ENP,ioos.station.NOAA.NDBC:LBRF1:1,2014-11-05T12:00:00Z,25.4840,-81.1330,1.0,20.6,11111222 
ENP,ioos.station.NOAA.NDBC:LBRF1:1,2014-11-05T13:00:00Z,25.4840,-81.1330,1.0,20.77,2 
ENP,ioos.station.NOAA.NDBC:LBRF1:1,2014-11-05T14:00:00Z,25.4840,-81.1330,1.0,20.79,2 
ENP,ioos.station.NOAA.NDBC:LBRF1:1,2014-11-05T15:00:00Z,25.4840,-81.1330,1.0,20.84,2 
ENP,ioos.station.NOAA.NDBC:LBRF1:1,2014-11-05T16:00:00Z,25.4840,-81.1330,1.0,20.67,2 
ENP,ioos.station.NOAA.NDBC:LBRF1:1,2014-11-05T17:00:00Z,25.4840,-81.1330,1.0,20.74,2 
ENP,ioos.station.NOAA.NDBC:LBRF1:1,2014-11-05T18:00:00Z,25.4840,-81.1330,1.0,20.7,11111222 
ENP,ioos.station.NOAA.NDBC:LBRF1:1,2014-11-05T19:00:00Z,25.4840,-81.1330,1.0,20.76,2 
ENP,ioos.station.NOAA.NDBC:LBRF1:1,2014-11-05T21:00:00Z,25.4840,-81.1330,1.0,20.94,2 
ENP,ioos.station.NOAA.NDBC:LBRF1:1,2014-11-05T22:00:00Z,25.4840,-81.1330,1.0,21.02,2 
ENP,ioos.station.NOAA.NDBC:LBRF1:1,2014-11-05T23:00:00Z,25.4840,-81.1330,1.0,21.07,2 
ENP,ioos.station.NOAA.NDBC:LBRF1:1,2014-11-06T00:00:00Z,25.4840,-81.1330,1.0,21.27,2 
ENP,ioos.station.NOAA.NDBC:LBRF1:1,2014-11-06T01:00:00Z,25.4840,-81.1330,1.0,21.43,2 
ENP,ioos.station.NOAA.NDBC:LBRF1:1,2014-11-06T02:00:00Z,25.4840,-81.1330,1.0,21.46,2 
ENP,ioos.station.NOAA.NDBC:LBRF1:1,2014-11-06T03:00:00Z,25.4840,-81.1330,1.0,21.22,2 
ENP,ioos.station.NOAA.NDBC:LBRF1:1,2014-11-06T04:00:00Z,25.4840,-81.1330,1.0,21.0,11111222 
ENP,ioos.station.NOAA.NDBC:LBRF1:1,2014-11-06T05:00:00Z,25.4840,-81.1330,1.0,21.02,2 
ENP,ioos.station.NOAA.NDBC:LBRF1:1,2014-11-06T06:00:00Z,25.4840,-81.1330,1.0,21.21,2 
ENP,ioos.station.NOAA.NDBC:LBRF1:1,2014-11-06T07:00:00Z,25.4840,-81.1330,1.0,21.23,2 
ENP,ioos.station.NOAA.NDBC:LBRF1:1,2014-11-06T08:00:00Z,25.4840,-81.1330,1.0,21.2,11111222 
ENP,ioos.station.NOAA.NDBC:LBRF1:1,2014-11-06T09:00:00Z,25.4840,-81.1330,1.0,21.19,2 
ENP,ioos.station.NOAA.NDBC:LBRF1:1,2014-11-06T10:00:00Z,25.4840,-81.1330,1.0,21.09,2 
ENP,ioos.station.NOAA.NDBC:LBRF1:1,2014-11-06T11:00:00Z,25.4840,-81.1330,1.0,20.99,2 
ENP,ioos.station.NOAA.NDBC:LBRF1:1,2014-11-06T12:00:00Z,25.4840,-81.1330,1.0,20.93,2 
ENP,ioos.station.NOAA.NDBC:LBRF1:1,2014-11-06T13:00:00Z,25.4840,-81.1330,1.0,21.1,2 
ENP,ioos.station.NOAA.NDBC:LBRF1:1,2014-11-06T14:00:00Z,25.4840,-81.1330,1.0,21.3,2 
ENP,ioos.station.NOAA.NDBC:LBRF1:1,2014-11-06T15:00:00Z,25.4840,-81.1330,1.0,21.42,2 
ENP,ioos.station.NOAA.NDBC:LBRF1:1,2014-11-06T16:00:00Z,25.4840,-81.1330,1.0,21.45,2 
ENP,ioos.station.NOAA.NDBC:LBRF1:1,2014-11-06T17:00:00Z,25.4840,-81.1330,1.0,21.54,2 
ENP,ioos.station.NOAA.NDBC:LBRF1:1,2014-11-06T18:00:00Z,25.4840,-81.1330,1.0,21.99,2 
ENP,ioos.station.NOAA.NDBC:LBRF1:1,2014-11-06T19:00:00Z,25.4840,-81.1330,1.0,22.23,2 
ENP,ioos.station.NOAA.NDBC:LBRF1:1,2014-11-06T20:00:00Z,25.4840,-81.1330,1.0,22.4,11111222 
ENP,ioos.station.NOAA.NDBC:LBRF1:1,2014-11-06T21:00:00Z,25.4840,-81.1330,1.0,22.51,2 
ENP,ioos.station.NOAA.NDBC:LBRF1:1,2014-11-06T22:00:00Z,25.4840,-81.1330,1.0,22.61,2 
ENP,ioos.station.NOAA.NDBC:LBRF1:1,2014-11-06T23:00:00Z,25.4840,-81.1330,1.0,22.48,2 
ENP,ioos.station.NOAA.NDBC:LBRF1:1,2014-11-07T00:00:00Z,25.4840,-81.1330,1.0,22.3,11111222 
ENP,ioos.station.NOAA.NDBC:LBRF1:1,2014-11-07T01:00:00Z,25.4840,-81.1330,1.0,22.25,2 
ENP,ioos.station.NOAA.NDBC:LBRF1:1,2014-11-07T02:00:00Z,25.4840,-81.1330,1.0,22.19,2 
ENP,ioos.station.NOAA.NDBC:LBRF1:1,2014-11-07T03:00:00Z,25.4840,-81.1330,1.0,22.21,2 
ENP,ioos.station.NOAA.NDBC:LBRF1:1,2014-11-07T05:00:00Z,25.4840,-81.1330,1.0,22.35,2 
ENP,ioos.station.NOAA.NDBC:LBRF1:1,2014-11-07T06:00:00Z,25.4840,-81.1330,1.0,22.52,2 
ENP,ioos.station.NOAA.NDBC:LBRF1:1,2014-11-07T07:00:00Z,25.4840,-81.1330,1.0,22.52,2 
ENP,ioos.station.NOAA.NDBC:LBRF1:1,2014-11-07T08:00:00Z,25.4840,-81.1330,1.0,22.5,11111222 
ENP,ioos.station.NOAA.NDBC:LBRF1:1,2014-11-07T09:00:00Z,25.4840,-81.1330,1.0,22.42,2 
ENP,ioos.station.NOAA.NDBC:LBRF1:1,2014-11-07T10:00:00Z,25.4840,-81.1330,1.0,22.43,2 
ENP,ioos.station.NOAA.NDBC:LBRF1:1,2014-11-07T11:00:00Z,25.4840,-81.1330,1.0,22.3,2 
ENP,ioos.station.NOAA.NDBC:LBRF1:1,2014-11-07T12:00:00Z,25.4840,-81.1330,1.0,22.2,2 
ENP,ioos.station.NOAA.NDBC:LBRF1:1,2014-11-07T13:00:00Z,25.4840,-81.1330,1.0,22.12,2 
ENP,ioos.station.NOAA.NDBC:LBRF1:1,2014-11-07T14:00:00Z,25.4840,-81.1330,1.0,22.05,2 
ENP,ioos.station.NOAA.NDBC:LBRF1:1,2014-11-07T15:00:00Z,25.4840,-81.1330,1.0,22.0,11111222 
ENP,ioos.station.NOAA.NDBC:LBRF1:1,2014-11-07T16:00:00Z,25.4840,-81.1330,1.0,22.12,2 
ENP,ioos.station.NOAA.NDBC:LBRF1:1,2014-11-07T17:00:00Z,25.4840,-81.1330,1.0,22.15,2 
ENP,ioos.station.NOAA.NDBC:LBRF1:1,2014-11-07T18:00:00Z,25.4840,-81.1330,1.0,22.86,2 
ENP,ioos.station.NOAA.NDBC:LBRF1:1,2014-11-07T19:00:00Z,25.4840,-81.1330,1.0,23.4,2 
ENP,ioos.station.NOAA.NDBC:LBRF1:1,2014-11-07T20:00:00Z,25.4840,-81.1330,1.0,23.8,11111222 
ENP,ioos.station.NOAA.NDBC:LBRF1:1,2014-11-07T21:00:00Z,25.4840,-81.1330,1.0,23.87,2 
ENP,ioos.station.NOAA.NDBC:LBRF1:1,2014-11-07T22:00:00Z,25.4840,-81.1330,1.0,23.84,2 
ENP,ioos.station.NOAA.NDBC:LBRF1:1,2014-11-07T23:00:00Z,25.4840,-81.1330,1.0,23.78,2 
ENP,ioos.station.NOAA.NDBC:LBRF1:1,2014-11-08T00:00:00Z,25.4840,-81.1330,1.0,23.6,11111222 
ENP,ioos.station.NOAA.NDBC:LBRF1:1,2014-11-08T01:00:00Z,25.4840,-81.1330,1.0,23.41,2 
ENP,ioos.station.NOAA.NDBC:LBRF1:1,2014-11-08T02:00:00Z,25.4840,-81.1330,1.0,23.26,2 
ENP,ioos.station.NOAA.NDBC:LBRF1:1,2014-11-08T03:00:00Z,25.4840,-81.1330,1.0,23.11,2 
ENP,ioos.station.NOAA.NDBC:LBRF1:1,2014-11-08T05:00:00Z,25.4840,-81.1330,1.0,23.31,2 
ENP,ioos.station.NOAA.NDBC:LBRF1:1,2014-11-08T07:00:00Z,25.4840,-81.1330,1.0,23.29,2 
ENP,ioos.station.NOAA.NDBC:LBRF1:1,2014-11-08T08:00:00Z,25.4840,-81.1330,1.0,23.3,11111222 
ENP,ioos.station.NOAA.NDBC:LBRF1:1,2014-11-08T09:00:00Z,25.4840,-81.1330,1.0,23.3,2 
ENP,ioos.station.NOAA.NDBC:LBRF1:1,2014-11-08T10:00:00Z,25.4840,-81.1330,1.0,23.19,2 
ENP,ioos.station.NOAA.NDBC:LBRF1:1,2014-11-08T11:00:00Z,25.4840,-81.1330,1.0,23.15,2 
ENP,ioos.station.NOAA.NDBC:LBRF1:1,2014-11-08T12:00:00Z,25.4840,-81.1330,1.0,22.91,2 
ENP,ioos.station.NOAA.NDBC:LBRF1:1,2014-11-08T13:00:00Z,25.4840,-81.1330,1.0,22.9,2 
ENP,ioos.station.NOAA.NDBC:LBRF1:1,2014-11-08T14:00:00Z,25.4840,-81.1330,1.0,22.9,2 
ENP,ioos.station.NOAA.NDBC:LBRF1:1,2014-11-08T16:00:00Z,25.4840,-81.1330,1.0,22.79,2 
ENP,ioos.station.NOAA.NDBC:LBRF1:1,2014-11-08T17:00:00Z,25.4840,-81.1330,1.0,22.85,2 
ENP,ioos.station.NOAA.NDBC:LBRF1:1,2014-11-08T19:00:00Z,25.4840,-81.1330,1.0,23.6,2 
ENP,ioos.station.NOAA.NDBC:LBRF1:1,2014-11-08T20:00:00Z,25.4840,-81.1330,1.0,24.28,2 
ENP,ioos.station.NOAA.NDBC:LBRF1:1,2014-11-08T21:00:00Z,25.4840,-81.1330,1.0,24.66,2 
ENP,ioos.station.NOAA.NDBC:LBRF1:1,2014-11-08T22:00:00Z,25.4840,-81.1330,1.0,24.68,2 
ENP,ioos.station.NOAA.NDBC:LBRF1:1,2014-11-08T23:00:00Z,25.4840,-81.1330,1.0,24.6,11111222 
ENP,ioos.station.NOAA.NDBC:LBRF1:1,2014-11-09T00:00:00Z,25.4840,-81.1330,1.0,24.43,2 
ENP,ioos.station.NOAA.NDBC:LBRF1:1,2014-11-09T01:00:00Z,25.4840,-81.1330,1.0,24.08,2 
ENP,ioos.station.NOAA.NDBC:LBRF1:1,2014-11-09T02:00:00Z,25.4840,-81.1330,1.0,23.94,2 
ENP,ioos.station.NOAA.NDBC:LBRF1:1,2014-11-09T03:00:00Z,25.4840,-81.1330,1.0,23.52,2 
ENP,ioos.station.NOAA.NDBC:LBRF1:1,2014-11-09T04:00:00Z,25.4840,-81.1330,1.0,23.5,11111222 
ENP,ioos.station.NOAA.NDBC:LBRF1:1,2014-11-09T05:00:00Z,25.4840,-81.1330,1.0,23.72,2 
ENP,ioos.station.NOAA.NDBC:LBRF1:1,2014-11-09T06:00:00Z,25.4840,-81.1330,1.0,23.93,2 
ENP,ioos.station.NOAA.NDBC:LBRF1:1,2014-11-09T07:00:00Z,25.4840,-81.1330,1.0,24.01,2 
ENP,ioos.station.NOAA.NDBC:LBRF1:1,2014-11-09T08:00:00Z,25.4840,-81.1330,1.0,24.0,11111222 
ENP,ioos.station.NOAA.NDBC:LBRF1:1,2014-11-09T09:00:00Z,25.4840,-81.1330,1.0,23.95,2 
ENP,ioos.station.NOAA.NDBC:LBRF1:1,2014-11-09T10:00:00Z,25.4840,-81.1330,1.0,23.93,2 
ENP,ioos.station.NOAA.NDBC:LBRF1:1,2014-11-09T11:00:00Z,25.4840,-81.1330,1.0,23.85,2 
ENP,ioos.station.NOAA.NDBC:LBRF1:1,2014-11-09T14:00:00Z,25.4840,-81.1330,1.0,23.68,2 
ENP,ioos.station.NOAA.NDBC:LBRF1:1,2014-11-09T15:00:00Z,25.4840,-81.1330,1.0,23.54,2 
ENP,ioos.station.NOAA.NDBC:LBRF1:1,2014-11-09T17:00:00Z,25.4840,-81.1330,1.0,23.41,2 
ENP,ioos.station.NOAA.NDBC:LBRF1:1,2014-11-09T18:00:00Z,25.4840,-81.1330,1.0,23.4,2 
ENP,ioos.station.NOAA.NDBC:LBRF1:1,2014-11-09T19:00:00Z,25.4840,-81.1330,1.0,23.47,2 
ENP,ioos.station.NOAA.NDBC:LBRF1:1,2014-11-09T20:00:00Z,25.4840,-81.1330,1.0,23.84,2 
ENP,ioos.station.NOAA.NDBC:LBRF1:1,2014-11-09T21:00:00Z,25.4840,-81.1330,1.0,23.92,2 
ENP,ioos.station.NOAA.NDBC:LBRF1:1,2014-11-09T22:00:00Z,25.4840,-81.1330,1.0,24.0,2 
ENP,ioos.station.NOAA.NDBC:LBRF1:1,2014-11-09T23:00:00Z,25.4840,-81.1330,1.0,24.0,11111222 
ENP,ioos.station.NOAA.NDBC:LBRF1:1,2014-11-10T00:00:00Z,25.4840,-81.1330,1.0,24.05,2 
ENP,ioos.station.NOAA.NDBC:LBRF1:1,2014-11-10T01:00:00Z,25.4840,-81.1330,1.0,23.48,2 
ENP,ioos.station.NOAA.NDBC:LBRF1:1,2014-11-10T02:00:00Z,25.4840,-81.1330,1.0,23.25,2 
ENP,ioos.station.NOAA.NDBC:LBRF1:1,2014-11-10T03:00:00Z,25.4840,-81.1330,1.0,23.17,2 
ENP,ioos.station.NOAA.NDBC:LBRF1:1,2014-11-10T04:00:00Z,25.4840,-81.1330,1.0,23.2,2 
ENP,ioos.station.NOAA.NDBC:LBRF1:1,2014-11-10T05:00:00Z,25.4840,-81.1330,1.0,23.2,11111222 
ENP,ioos.station.NOAA.NDBC:LBRF1:1,2014-11-10T06:00:00Z,25.4840,-81.1330,1.0,23.16,2 
ENP,ioos.station.NOAA.NDBC:LBRF1:1,2014-11-10T07:00:00Z,25.4840,-81.1330,1.0,23.1,11111222 
ENP,ioos.station.NOAA.NDBC:LBRF1:1,2014-11-10T08:00:00Z,25.4840,-81.1330,1.0,23.16,2 
ENP,ioos.station.NOAA.NDBC:LBRF1:1,2014-11-10T09:00:00Z,25.4840,-81.1330,1.0,23.06,2 
ENP,ioos.station.NOAA.NDBC:LBRF1:1,2014-11-10T10:00:00Z,25.4840,-81.1330,1.0,23.02,2 
ENP,ioos.station.NOAA.NDBC:LBRF1:1,2014-11-10T11:00:00Z,25.4840,-81.1330,1.0,22.99,2 
ENP,ioos.station.NOAA.NDBC:LBRF1:1,2014-11-10T12:00:00Z,25.4840,-81.1330,1.0,22.9,2 
ENP,ioos.station.NOAA.NDBC:LBRF1:1,2014-11-10T13:00:00Z,25.4840,-81.1330,1.0,22.8,2 
ENP,ioos.station.NOAA.NDBC:LBRF1:1,2014-11-10T14:00:00Z,25.4840,-81.1330,1.0,22.71,2 
ENP,ioos.station.NOAA.NDBC:LBRF1:1,2014-11-10T15:00:00Z,25.4840,-81.1330,1.0,22.8,11111222 
ENP,ioos.station.NOAA.NDBC:LBRF1:1,2014-11-10T16:00:00Z,25.4840,-81.1330,1.0,22.89,2 
ENP,ioos.station.NOAA.NDBC:LBRF1:1,2014-11-10T17:00:00Z,25.4840,-81.1330,1.0,22.95,2 
ENP,ioos.station.NOAA.NDBC:LBRF1:1,2014-11-10T18:00:00Z,25.4840,-81.1330,1.0,23.08,2 
ENP,ioos.station.NOAA.NDBC:LBRF1:1,2014-11-10T19:00:00Z,25.4840,-81.1330,1.0,23.1,11111222 
ENP,ioos.station.NOAA.NDBC:LBRF1:1,2014-11-10T20:00:00Z,25.4840,-81.1330,1.0,23.24,2 
ENP,ioos.station.NOAA.NDBC:LBRF1:1,2014-11-10T21:00:00Z,25.4840,-81.1330,1.0,23.73,2 
ENP,ioos.station.NOAA.NDBC:LBRF1:1,2014-11-10T22:00:00Z,25.4840,-81.1330,1.0,23.96,2 
ENP,ioos.station.NOAA.NDBC:LBRF1:1,2014-11-10T23:00:00Z,25.4840,-81.1330,1.0,23.94,2 
ENP,ioos.station.NOAA.NDBC:LBRF1:1,2014-11-11T00:00:00Z,25.4840,-81.1330,1.0,23.9,11111222 
ENP,ioos.station.NOAA.NDBC:LBRF1:1,2014-11-11T01:00:00Z,25.4840,-81.1330,1.0,23.8,2 
ENP,ioos.station.NOAA.NDBC:LBRF1:1,2014-11-11T02:00:00Z,25.4840,-81.1330,1.0,23.52,2 
ENP,ioos.station.NOAA.NDBC:LBRF1:1,2014-11-11T03:00:00Z,25.4840,-81.1330,1.0,23.23,2 
ENP,ioos.station.NOAA.NDBC:LBRF1:1,2014-11-11T05:00:00Z,25.4840,-81.1330,1.0,23.0,2 
ENP,ioos.station.NOAA.NDBC:LBRF1:1,2014-11-11T06:00:00Z,25.4840,-81.1330,1.0,22.98,2 
ENP,ioos.station.NOAA.NDBC:LBRF1:1,2014-11-11T07:00:00Z,25.4840,-81.1330,1.0,23.15,2 
ENP,ioos.station.NOAA.NDBC:LBRF1:1,2014-11-11T08:00:00Z,25.4840,-81.1330,1.0,23.3,11111222 
ENP,ioos.station.NOAA.NDBC:LBRF1:1,2014-11-11T09:00:00Z,25.4840,-81.1330,1.0,23.1,2 
ENP,ioos.station.NOAA.NDBC:LBRF1:1,2014-11-11T10:00:00Z,25.4840,-81.1330,1.0,22.77,2 
ENP,ioos.station.NOAA.NDBC:LBRF1:1,2014-11-11T11:00:00Z,25.4840,-81.1330,1.0,22.72,2 
ENP,ioos.station.NOAA.NDBC:LBRF1:1,2014-11-11T13:00:00Z,25.4840,-81.1330,1.0,22.77,2 
ENP,ioos.station.NOAA.NDBC:LBRF1:1,2014-11-11T14:00:00Z,25.4840,-81.1330,1.0,22.81,2 
ENP,ioos.station.NOAA.NDBC:LBRF1:1,2014-11-11T15:00:00Z,25.4840,-81.1330,1.0,22.66,2 
ENP,ioos.station.NOAA.NDBC:LBRF1:1,2014-11-11T16:00:00Z,25.4840,-81.1330,1.0,22.69,2 
ENP,ioos.station.NOAA.NDBC:LBRF1:1,2014-11-11T17:00:00Z,25.4840,-81.1330,1.0,22.82,2 
ENP,ioos.station.NOAA.NDBC:LBRF1:1,2014-11-11T18:00:00Z,25.4840,-81.1330,1.0,22.96,2 
ENP,ioos.station.NOAA.NDBC:LBRF1:1,2014-11-11T19:00:00Z,25.4840,-81.1330,1.0,23.0,2 
ENP,ioos.station.NOAA.NDBC:LBRF1:1,2014-11-11T20:00:00Z,25.4840,-81.1330,1.0,23.18,2 
ENP,ioos.station.NOAA.NDBC:LBRF1:1,2014-11-11T21:00:00Z,25.4840,-81.1330,1.0,23.27,2 
ENP,ioos.station.NOAA.NDBC:LBRF1:1,2014-11-11T22:00:00Z,25.4840,-81.1330,1.0,23.94,2 
ENP,ioos.station.NOAA.NDBC:LBRF1:1,2014-11-11T23:00:00Z,25.4840,-81.1330,1.0,23.9,2 
ENP,ioos.station.NOAA.NDBC:LBRF1:1,2014-11-12T00:00:00Z,25.4840,-81.1330,1.0,23.9,11111222 
ENP,ioos.station.NOAA.NDBC:LBRF1:1,2014-11-12T01:00:00Z,25.4840,-81.1330,1.0,23.9,11111222 
ENP,ioos.station.NOAA.NDBC:LBRF1:1,2014-11-12T02:00:00Z,25.4840,-81.1330,1.0,23.8,11111222 
ENP,ioos.station.NOAA.NDBC:LBRF1:1,2014-11-12T03:00:00Z,25.4840,-81.1330,1.0,23.4,11111222 
ENP,ioos.station.NOAA.NDBC:LBRF1:1,2014-11-12T04:00:00Z,25.4840,-81.1330,1.0,23.2,11111222 
ENP,ioos.station.NOAA.NDBC:LBRF1:1,2014-11-12T05:00:00Z,25.4840,-81.1330,1.0,22.9,11111222 
ENP,ioos.station.NOAA.NDBC:LBRF1:1,2014-11-12T06:00:00Z,25.4840,-81.1330,1.0,22.8,11111222 
ENP,ioos.station.NOAA.NDBC:LBRF1:1,2014-11-12T07:00:00Z,25.4840,-81.1330,1.0,22.8,11111222 
ENP,ioos.station.NOAA.NDBC:LBRF1:1,2014-11-12T08:00:00Z,25.4840,-81.1330,1.0,23.3,11111222 
ENP,ioos.station.NOAA.NDBC:LBRF1:1,2014-11-12T09:00:00Z,25.4840,-81.1330,1.0,23.3,11111222 
ENP,ioos.station.NOAA.NDBC:LBRF1:1,2014-11-12T10:00:00Z,25.4840,-81.1330,1.0,23.3,11111222 
ENP,ioos.station.NOAA.NDBC:LBRF1:1,2014-11-12T11:00:00Z,25.4840,-81.1330,1.0,23.0,11111222 
ENP,ioos.station.NOAA.NDBC:LBRF1:1,2014-11-12T12:00:00Z,25.4840,-81.1330,1.0,22.9,11111222 
ENP,ioos.station.NOAA.NDBC:LBRF1:1,2014-11-12T17:00:00Z,25.4840,-81.1330,1.0,22.7,11111222 
ENP,ioos.station.NOAA.NDBC:LBRF1:1,2014-11-12T18:00:00Z,25.4840,-81.1330,1.0,22.8,11111222 
ENP,ioos.station.NOAA.NDBC:LBRF1:1,2014-11-12T19:00:00Z,25.4840,-81.1330,1.0,23.0,11111222 
ENP,ioos.station.NOAA.NDBC:LBRF1:1,2014-11-12T20:00:00Z,25.4840,-81.1330,1.0,23.02,2 
ENP,ioos.station.NOAA.NDBC:LBRF1:1,2014-11-12T21:00:00Z,25.4840,-81.1330,1.0,23.22,2 
ENP,ioos.station.NOAA.NDBC:LBRF1:1,2014-11-12T22:00:00Z,25.4840,-81.1330,1.0,23.46,2 
ENP,ioos.station.NOAA.NDBC:LBRF1:1,2014-11-12T23:00:00Z,25.4840,-81.1330,1.0,23.8,11111222 
ENP,ioos.station.NOAA.NDBC:LBRF1:1,2014-11-13T00:00:00Z,25.4840,-81.1330,1.0,24.17,2 
ENP,ioos.station.NOAA.NDBC:LBRF1:1,2014-11-13T01:00:00Z,25.4840,-81.1330,1.0,24.21,2 
ENP,ioos.station.NOAA.NDBC:LBRF1:1,2014-11-13T02:00:00Z,25.4840,-81.1330,1.0,24.1,2 
ENP,ioos.station.NOAA.NDBC:LBRF1:1,2014-11-13T03:00:00Z,25.4840,-81.1330,1.0,23.49,2 
ENP,ioos.station.NOAA.NDBC:LBRF1:1,2014-11-13T04:00:00Z,25.4840,-81.1330,1.0,23.2,11111222 
ENP,ioos.station.NOAA.NDBC:LBRF1:1,2014-11-13T05:00:00Z,25.4840,-81.1330,1.0,22.99,2 
ENP,ioos.station.NOAA.NDBC:LBRF1:1,2014-11-13T06:00:00Z,25.4840,-81.1330,1.0,22.88,2 
ENP,ioos.station.NOAA.NDBC:LBRF1:1,2014-11-13T07:00:00Z,25.4840,-81.1330,1.0,22.82,2 
ENP,ioos.station.NOAA.NDBC:LBRF1:1,2014-11-13T08:00:00Z,25.4840,-81.1330,1.0,22.82,2 
ENP,ioos.station.NOAA.NDBC:LBRF1:1,2014-11-13T09:00:00Z,25.4840,-81.1330,1.0,23.31,2 
ENP,ioos.station.NOAA.NDBC:LBRF1:1,2014-11-13T10:00:00Z,25.4840,-81.1330,1.0,23.62,2 
ENP,ioos.station.NOAA.NDBC:LBRF1:1,2014-11-13T11:00:00Z,25.4840,-81.1330,1.0,23.68,2 
ENP,ioos.station.NOAA.NDBC:LBRF1:1,2014-11-13T12:00:00Z,25.4840,-81.1330,1.0,23.64,2 